FW4110 Weather Reports


time (UTC)temp
F
wind
direction
speed
knots
gust
knots
rain 1hr
in
rain 24hr
in
rain mn
in
humidity
%
barometer
mb
20260902024531 85 161 0.9 3.5 0.00 0.00 0.00 80 1017.5
20260902023040 86 151 1.7 3.5 0.00 0.00 0.00 79 1017.3
20260902021527 86 150 1.7 3.5 0.00 0.00 0.00 78 1017.1
20260902020026 86 142 0.9 4.3 0.00 0.00 0.00 77 1017.0
20260902014533 87 166 0.9 2.6 0.00 0.00 0.00 77 1016.8
20260902013022 87 174 0.9 1.7 0.00 0.00 0.00 75 1016.6
20260902011538 88 158 0.9 2.6 0.00 0.00 0.00 74 1016.5
20260902010017 88 152 0.9 1.7 0.00 0.00 0.00 73 1016.4
20260902004514 89 178 0.0 0.9 0.00 0.00 0.00 71 1016.4
20260902003013 89 176 0.0 0.9 0.00 0.00 0.00 70 1016.5
20260902001511 91 162 0.0 1.7 0.00 0.00 0.00 67 1016.3
20260902000009 93 173 0.0 0.9 0.00 0.00 0.00 67 1016.3
20260901234506 95 192 0.0 0.9 0.00 0.00 0.00 65 1016.3
20260901233004 96 258 0.0 1.7 0.00 0.00 0.00 64 1016.5
20260901231503 96 178 0.0 2.6 0.00 0.00 0.00 62 1016.5
20260901230001 97 159 0.0 3.5 0.00 0.00 0.00 61 1016.5
20260901224606 98 292 0.9 5.2 0.00 0.00 0.00 59 1016.5
20260901223058 99 193 0.0 4.3 0.00 0.00 0.00 59 1016.5
20260901221602 99 161 0.9 6.1 0.00 0.00 0.00 58 1016.5
20260901220056 101 104 0.9 4.3 0.00 0.00 0.00 58 1016.4
20260901214601 100 298 2.6 7.0 0.00 0.00 0.00 58 1016.4
20260901213055 100 315 0.0 4.3 0.00 0.00 0.00 59 1016.4
20260901211550 100 151 2.6 6.1 0.00 0.00 0.00 59 1016.5
20260901210106 100 171 2.6 6.1 0.00 0.00 0.00 57 1016.8
20260901204544 100 147 0.0 3.5 0.00 0.00 0.00 59 1016.9
20260901203039 99 342 0.0 4.3 0.00 0.00 0.00 60 1017.0
20260901201537 99 341 0.9 5.2 0.00 0.00 0.00 59 1017.2
20260901200034 99 250 0.0 7.0 0.00 0.00 0.00 59 1017.3
20260901194533 99 237 1.7 5.2 0.00 0.00 0.00 59 1017.4
20260901193032 97 337 0.0 6.1 0.00 0.00 0.00 63 1017.6
20260901191536 98 226 0.9 5.2 0.00 0.00 0.00 61 1017.6
20260901190019 98 38 1.7 4.3 0.00 0.00 0.00 64 1017.8
20260901184513 96 283 0.0 8.7 0.00 0.00 0.00 66 1018.1
20260901183007 96 343 3.5 7.8 0.00 0.00 0.00 65 1018.2
20260901181603 96 313 1.7 5.2 0.00 0.00 0.00 66 1018.4
20260901180056 95 357 1.7 5.2 0.00 0.00 0.00 68 1018.5
20260901174551 95 335 0.9 5.2 0.00 0.00 0.00 67 1018.7
20260901173044 94 291 2.6 7.8 0.00 0.00 0.00 69 1018.7
20260901171537 94 341 1.7 3.5 0.00 0.00 0.00 70 1018.8
20260901170032 93 181 1.7 4.3 0.00 0.00 0.00 72 1019.0
20260901164525 93 277 0.9 4.3 0.00 0.00 0.00 73 1019.2
20260901163020 93 206 0.9 4.3 0.00 0.00 0.00 72 1019.3
20260901161514 92 342 1.7 6.1 0.00 0.00 0.00 74 1019.5
20260901160011 90 180 0.9 6.1 0.00 0.00 0.00 75 1019.4
20260901154506 90 358 0.9 6.1 0.00 0.00 0.00 75 1019.5
20260901153004 89 332 2.6 5.2 0.00 0.00 0.00 76 1019.7
20260901151600 89 300 0.9 7.8 0.00 0.00 0.00 76 1019.8
20260901150107 89 249 0.0 6.1 0.00 0.00 0.00 77 1019.8
20260901144552 87 199 0.9 5.2 0.00 0.00 0.00 78 1019.6
20260901143046 86 271 0.9 5.2 0.00 0.00 0.00 78 1019.7
20260901141554 84 230 0.9 5.2 0.00 0.00 0.00 79 1020.0
20260901140040 84 295 1.7 5.2 0.00 0.00 0.00 79 1019.9
20260901134533 83 229 0.9 5.2 0.00 0.00 0.00 79 1019.9
20260901133029 82 213 0.9 3.5 0.00 0.00 0.00 78 1019.9
20260901131528 80 214 0.9 3.5 0.00 0.00 0.00 78 1020.0
20260901130022 79 178 0.0 1.7 0.00 0.00 0.00 78 1020.0
20260901124535 77 170 0.0 1.7 0.00 0.00 0.00 78 1019.8
20260901123015 75 172 0.0 1.7 0.00 0.00 0.00 77 1019.6
20260901121511 0 0.0 0.0 0.00 0.00 0.00 1019.2
20260901120005 0 0.0 0.0 0.00 0.00 0.00 1019.4
20260901114609 0 0.0 0.0 0.00 0.00 0.00 1019.2
20260901113059 0 0.0 0.0 0.00 0.00 0.00 1019.0
20260901111557 0 0.0 0.0 0.00 0.00 0.00 1019.1
20260901110049 0 0.0 0.0 0.00 0.00 0.00 1019.0
20260901104539 0 0.0 0.0 0.00 0.00 0.00 1019.0
20260901103038 0 0.0 0.0 0.00 0.00 0.00 1018.8
20260901101529 0 184 0.0 0.0 0.00 0.00 0.00 1018.7
20260901100025 74 185 0.0 0.0 0.00 0.00 0.00 84 1018.5
20260901094523 75 187 0.0 0.0 0.00 0.00 0.00 82 1018.5
20260901093018 75 169 0.0 1.7 0.00 0.00 0.00 83 1018.5
20260901091517 73 153 0.0 0.0 0.00 0.00 0.00 85 1018.3
20260901090012 73 153 0.0 0.0 0.00 0.00 0.00 87 1018.4
20260901084507 74 153 0.0 0.0 0.00 0.00 0.00 88 1018.1
20260901083003 75 153 0.0 0.0 0.00 0.00 0.00 88 1017.9
20260901081600 75 151 0.0 0.9 0.00 0.00 0.00 88 1017.7
20260901080104 75 147 0.0 0.0 0.00 0.00 0.00 89 1017.8
20260901074551 77 147 0.0 0.0 0.00 0.00 0.00 88 1017.8
20260901073046 78 147 0.0 0.0 0.00 0.00 0.00 87 1017.8
20260901071542 79 144 0.0 0.9 0.00 0.00 0.00 86 1017.6
20260901070046 79 180 0.9 2.6 0.00 0.00 0.00 86 1017.5
20260901064538 79 169 0.9 2.6 0.00 0.00 0.00 86 1017.7
20260901063047 80 149 0.9 3.5 0.00 0.00 0.00 86 1017.7
20260901061531 80 154 0.9 3.5 0.00 0.00 0.00 86 1017.7
20260901060027 80 174 1.7 3.5 0.00 0.00 0.00 85 1017.7
20260901054525 81 178 0.9 4.3 0.00 0.00 0.00 85 1017.7
20260901053021 81 192 0.9 4.3 0.00 0.00 0.00 85 1017.6
20260901051520 81 167 2.6 5.2 0.00 0.00 0.00 85 1017.6
20260901050016 82 171 1.7 4.3 0.00 0.00 0.00 85 1017.6
20260901044513 82 187 2.6 4.3 0.00 0.00 0.00 84 1017.7
20260901043012 82 154 0.9 3.5 0.00 0.00 0.00 84 1017.8
20260901041509 83 168 0.9 3.5 0.00 0.00 0.00 83 1017.8
20260901040008 83 150 1.7 4.3 0.00 0.00 0.00 82 1017.7
20260901034511 83 173 2.6 5.2 0.00 0.00 0.00 82 1017.8
20260901033003 84 152 1.7 6.1 0.00 0.00 0.00 82 1017.8
20260901031503 84 165 2.6 5.2 0.00 0.00 0.00 82 1017.7
20260901030058 84 173 1.7 5.2 0.00 0.00 0.00 82 1017.7